[[{"header":{"parameterUnit":"m.s-1","parameterCategory":2,"la1":30.2991,"la2":30.254,"lo1":-89.0895,"lo2":-89.0444,"dy":0.0017,"dx":0.0017,"nx":28,"ny":28,"refTime":"2023-08-10T21:00:00:Z","depth":"0","parameterNumber":2,"parameterNumberName":"U-component_of_CURRENTS"},"data":[0,0,0,0,0,0,0,0,0,0,0,0,0,0,0,0,0,0,0,0,0,0,0,0,0,0,0,0,0,0,0,0,0,0,0,0,0,0,0,0,0,0,0,0,0,0,0,0,0,0,0,0,0,0,0,0,0,0,0.4203,0.4201,0,0.4129,0.4129,0.4128,0.4062,0.406,0.4059,0.4057,0.4142,0.4145,0.4149,0,0,0,0,0,0,0,0,0,0,0,0,0,0.4353,0.4351,0.4203,0.4201,0.4199,0.4129,0.4129,0.4128,0.4062,0.406,0.4058,0.4056,0.4141,0.4145,0.4149,0,0,0,0,0,0,0,0,0,0,0,0,0,0.4292,0.435,0.4203,0.4152,0.4146,0.4129,0.4129,0.4128,0.4062,0.406,0.4058,0.4056,0.4139,0.4144,0.415,0.423,0,0,0.4167,0.4169,0,0,0,0,0,0,0,0,0.4295,0.4287,0.4161,0.4155,0.4148,0.4095,0.4212,0.4168,0.4063,0.4103,0.4057,0.4054,0.4137,0.4143,0.4143,0.4234,0.4238,0.4167,0.4171,0.4173,0.4175,0,0,0,0,0,0,0,0.43,0.4291,0.4182,0.4159,0.4151,0.4155,0.4144,0.4204,0.4143,0.4099,0.4092,0.4072,0.4136,0.4138,0.4145,0.4239,0.4167,0.4172,0.4176,0.4178,0.4372,0.4374,0,0,0,0,0,0,0.4291,0.4294,0.4184,0.4179,0.4208,0.4153,0.4141,0.4121,0.4139,0.4136,0.4074,0.4069,0.413,0.4139,0.4148,0.4192,0.4173,0.4178,0.4181,0.437,0.4373,0.4375,0,0,0,0,0,0,0.4295,0.4282,0.4187,0.4228,0.4215,0.4151,0.413,0.4121,0.4103,0.4116,0.4117,0.4062,0.4128,0.414,0.4175,0.4196,0.4181,0.4186,0.4368,0.4371,0.4374,0.4314,0,0,0,0,0,0,0.43,0.4284,0.4273,0.4228,0.4212,0.4169,0.4131,0.4121,0.4091,0.4084,0.4109,0.4114,0.4127,0.4166,0.418,0.4204,0.419,0.4366,0.4369,0.4373,0.4313,0.4314,0.4315,0,0,0,0,0,0.4305,0.4297,0.4274,0.426,0.4197,0.4169,0.4163,0.4115,0.4093,0.4092,0.4095,0.4112,0.4199,0.4172,0.4188,0.4213,0.4364,0.4368,0.4372,0.4313,0.4314,0.4315,0,0,0,0,0,0,0.4361,0.4287,0.4261,0.4231,0.4197,0.4154,0.4143,0.4117,0.4119,0.4113,0.4127,0.4135,0.4179,0.4215,0.4184,0.4285,0.4291,0.4298,0.424,0.4242,0.4242,0.4224,0.4195,0,0,0,0,0,0.4368,0.434,0.4278,0.4259,0.4238,0.4194,0.4177,0.4147,0.4134,0.4129,0.414,0.4173,0.4217,0.4237,0.4283,0.4338,0.4344,0.4372,0.4372,0.4372,0.4373,0.4425,0.4429,0.4388,0.4388,0.4388,0,0,0.4389,0.434,0.4328,0.4269,0.4239,0.4208,0.418,0.4152,0.4127,0.4148,0.4137,0.4179,0.4234,0.4278,0.4304,0.4303,0.4376,0.4378,0.4376,0.4377,0.4429,0.4433,0.4436,0.4391,0.4391,0.439,0,0,0.4416,0.437,0.4354,0.4319,0.4261,0.4226,0.4215,0.417,0.4148,0.4148,0.4163,0.4209,0.426,0.4301,0.433,0.4377,0.438,0.4402,0.4385,0.4435,0.4438,0.4441,0.4385,0.4384,0.4399,0.4399,0.4399,0,0.4447,0.4397,0.4352,0.4321,0.4277,0.423,0.4198,0.418,0.4154,0.4146,0.4137,0.4222,0.4273,0.4332,0.4342,0.4377,0.4366,0.4365,0.4431,0.4435,0.4439,0.4382,0.4381,0.4396,0.4396,0.4397,0.4397,0,0.4459,0.4407,0.4395,0.4325,0.4287,0.4254,0.4198,0.4175,0.4142,0.4128,0.4165,0.4226,0.4271,0.4311,0.4336,0.4402,0.4367,0.4421,0.4414,0.4438,0.4377,0.4377,0.4393,0.4394,0.4394,0.4395,0,0,0.4544,0.4425,0.4417,0.4353,0.4273,0.4233,0.4196,0.4145,0.4112,0.4128,0.4116,0.4211,0.4239,0.4278,0.4334,0.4387,0.439,0.4407,0.4411,0.4322,0.4413,0.4135,0.4107,0.445,0.4451,0.4452,0.4332,0,0.4558,0.4478,0.4422,0.4335,0.4271,0.4204,0.4161,0.4119,0.4093,0.4079,0.4149,0.4173,0.4226,0.425,0.4313,0.4394,0.4399,0.4412,0.443,0.4428,0.4157,0.4103,0.3906,0.3762,0.4332,0.4332,0.4332,0,0.4574,0.4501,0.4417,0.4272,0.4242,0.4194,0.4088,0.4051,0.4036,0.4024,0.4065,0.4107,0.4189,0.4235,0.4333,0.4333,0.4357,0.4404,0.4402,0.4169,0.4152,0.385,0.3741,0.3653,0.4332,0.4332,0.4332,0,0.4595,0.4484,0.4398,0.4355,0.4215,0.4164,0.4096,0.4042,0.3987,0.3997,0.3976,0.4069,0.4099,0.4192,0.4245,0.4302,0.4311,0.441,0.416,0.4138,0.3986,0.3946,0.3773,0.4451,0.4452,0.4452,0.4452,0,0.4583,0.4501,0.4395,0.4336,0.422,0.415,0.4043,0.3993,0.3947,0.3873,0.3954,0.3929,0.4097,0.4109,0.4195,0.411,0.4256,0.4114,0.4091,0.3948,0.3909,0.384,0.3827,0.4447,0.4448,0.4449,0.445,0,0.4544,0.45,0.4378,0.4253,0.4208,0.4117,0.3962,0.3885,0.3866,0.3779,0.3777,0.382,0.3799,0.3872,0.3979,0.3977,0.3831,0.3914,0.3657,0.3603,0.3274,0.3264,0.2946,0.2891,0.3628,0.3621,0.3614,0,0.4473,0.4419,0.4302,0.4215,0.4135,0.4005,0.3898,0.3839,0.3752,0.3688,0.3638,0.3602,0.3522,0.3494,0.3479,0.3442,0.3479,0.3235,0.3325,0.3159,0.314,0.3092,0.3074,0.3094,0.3084,0.3076,0.3069,0,0.4302,0.4298,0.4201,0.4065,0.3948,0.3804,0.3662,0.3603,0.3522,0.346,0.334,0.3287,0.317,0.3012,0.2912,0.2927,0.3021,0.3054,0.3015,0.2766,0.2581,0.2548,0.3214,0.2995,0.3003,0.3008,0.3012,0.3015,0.4139,0.406,0.3971,0.3817,0.3721,0.3568,0.3386,0.3291,0.3154,0.2935,0.3048,0.2824,0.2683,0.2503,0.2479,0.2274,0.2422,0.2262,0.2277,0.2254,0.2137,0.2534,0.2211,0.2214,0.2216,0.2218,0.222,0,0.3838,0.3797,0.3686,0.351,0.3351,0.336,0.3163,0.2948,0.2727,0.2621,0.2467,0.2189,0.1993,0.1901,0.1698,0.1575,0.1643,0.1534,0.1531,0.1578,0.2043,0.1958,0.1403,0.1403,0.1403,0.1403,0.1404,0.1404,0.3666,0.3505,0.3478,0.3162,0.3046,0.2734,0.2584,0.2364,0.2211,0.1855,0.1618,0.1553,0.1486,0.1242,0.1074,0.1077,0.1095,0.0899,0.1036,0.1467,0.1542,0.1614,0.1533,0.0899,0.0898,0.0544,0.0541,0.0538]},{"header":{"parameterUnit":"m.s-1","parameterCategory":2,"la1":30.2991,"la2":30.254,"lo1":-89.0895,"lo2":-89.0444,"dy":0.0017,"dx":0.0017,"nx":28,"ny":28,"refTime":"2023-08-10T21:00:00:Z","depth":"0","parameterNumber":3,"parameterNumberName":"V-component_of_CURRENTS"},"data":[0,0,0,0,0,0,0,0,0,0,0,0,0,0,0,0,0,0,0,0,0,0,0,0,0,0,0,0,0,0,0,0,0,0,0,0,0,0,0,0,0,0,0,0,0,0,0,0,0,0,0,0,0,0,0,0,0,0,0.0665,0.0666,0,0.0896,0.09,0.0903,0.0964,0.0962,0.096,0.0957,0.1285,0.1295,0.1306,0,0,0,0,0,0,0,0,0,0,0,0,0,0.0499,0.0501,0.0665,0.0667,0.0668,0.0896,0.09,0.0904,0.0965,0.0962,0.0959,0.0956,0.1281,0.1294,0.1307,0,0,0,0,0,0,0,0,0,0,0,0,0,0.0645,0.0502,0.0664,0.0718,0.0724,0.0895,0.09,0.0905,0.0966,0.0962,0.0958,0.0955,0.1277,0.1293,0.1309,0.1483,0,0,0.1359,0.1366,0,0,0,0,0,0,0,0,0.0636,0.0652,0.0708,0.0714,0.0722,0.0888,0.0961,0.11,0.0966,0.0886,0.0957,0.0953,0.1156,0.1182,0.1249,0.1499,0.1513,0.1361,0.1371,0.1378,0.1382,0,0,0,0,0,0,0,0.0626,0.0644,0.0768,0.071,0.0718,0.0806,0.0822,0.0989,0.1049,0.0893,0.0895,0.0904,0.1162,0.1233,0.1257,0.1517,0.136,0.1375,0.1385,0.1391,0.1901,0.1905,0,0,0,0,0,0,0.0568,0.0633,0.076,0.0774,0.0656,0.081,0.0829,0.0847,0.1045,0.1068,0.0907,0.0906,0.1206,0.1237,0.1268,0.1482,0.1378,0.1393,0.1402,0.1898,0.1902,0.1906,0,0,0,0,0,0,0.0563,0.0577,0.0751,0.0699,0.0726,0.0814,0.0837,0.0854,0.0916,0.1053,0.1079,0.0947,0.1205,0.1245,0.1426,0.1495,0.14,0.1415,0.1893,0.1899,0.1904,0.1913,0,0,0,0,0,0,0.0558,0.0575,0.0578,0.0695,0.0726,0.0854,0.084,0.086,0.0922,0.0923,0.1098,0.1124,0.1205,0.1401,0.1443,0.1516,0.1428,0.1889,0.1896,0.1903,0.1908,0.1918,0.1927,0,0,0,0,0,0.0552,0.0576,0.0578,0.0593,0.0725,0.0855,0.0883,0.094,0.0926,0.0979,0.1091,0.1118,0.1472,0.1419,0.1467,0.1546,0.1885,0.1894,0.1902,0.1904,0.1917,0.1927,0,0,0,0,0,0,0.0506,0.0587,0.0591,0.0635,0.073,0.0861,0.0911,0.0948,0.1082,0.1078,0.1193,0.1233,0.1415,0.1487,0.1424,0.1711,0.1675,0.1694,0.1661,0.1674,0.1683,0.1633,0.1442,0,0,0,0,0,0.0493,0.0538,0.0626,0.067,0.0708,0.081,0.0867,0.0911,0.1031,0.1084,0.1208,0.1343,0.1497,0.158,0.1728,0.1906,0.1865,0.1979,0.1988,0.1996,0.1988,0.1964,0.1967,0.1933,0.1933,0.1933,0,0,0.0483,0.0538,0.0558,0.0664,0.074,0.0838,0.084,0.0933,0.1026,0.1107,0.1285,0.1397,0.1553,0.174,0.1826,0.1803,0.1986,0.2006,0.2011,0.2,0.1972,0.1974,0.1976,0.1939,0.1938,0.1937,0,0,0.0515,0.0539,0.0592,0.0679,0.0782,0.0857,0.0877,0.1016,0.1082,0.1264,0.1337,0.1472,0.1726,0.1834,0.1923,0.2079,0.2039,0.2134,0.2148,0.2125,0.2125,0.2124,0.2056,0.205,0.2132,0.2132,0.2132,0,0.0488,0.0571,0.0633,0.0725,0.0789,0.0862,0.0947,0.1057,0.1241,0.1314,0.1313,0.1648,0.1767,0.1976,0.2023,0.2099,0.2051,0.2087,0.2127,0.2127,0.2126,0.2056,0.2049,0.2134,0.2134,0.2133,0.2133,0,0.0577,0.0643,0.0692,0.082,0.091,0.0997,0.1124,0.1232,0.1304,0.1404,0.1606,0.1758,0.1927,0.2005,0.2074,0.2172,0.2126,0.2135,0.2075,0.2128,0.2054,0.2045,0.2136,0.2135,0.2135,0.2135,0,0,0.0506,0.0702,0.0717,0.0789,0.0955,0.104,0.1198,0.1357,0.1446,0.1607,0.1725,0.1973,0.1995,0.2095,0.2183,0.2185,0.2144,0.2155,0.2153,0.2043,0.204,0.2009,0.1996,0.2138,0.2138,0.2137,0.1978,0,0.0544,0.0698,0.0799,0.0956,0.1041,0.1165,0.1306,0.146,0.1582,0.1723,0.1849,0.1997,0.2048,0.2105,0.2125,0.217,0.2127,0.2183,0.2043,0.2039,0.1969,0.1989,0.1912,0.1765,0.197,0.1968,0.1967,0,0.0593,0.069,0.0824,0.1016,0.1061,0.1163,0.1355,0.1495,0.1699,0.1785,0.1917,0.2003,0.2112,0.2092,0.2116,0.2141,0.2076,0.2065,0.2058,0.2018,0.1994,0.1756,0.1742,0.1779,0.1954,0.1955,0.1956,0,0.0517,0.0711,0.0805,0.0876,0.1099,0.1176,0.129,0.15,0.1617,0.1788,0.1848,0.1992,0.2032,0.2016,0.2023,0.2044,0.1976,0.1995,0.1891,0.1886,0.179,0.1779,0.1759,0.192,0.1921,0.1921,0.1922,0,0.0528,0.0614,0.0768,0.0831,0.0948,0.1114,0.1253,0.1395,0.1576,0.1693,0.1835,0.1914,0.2,0.2006,0.1987,0.192,0.1928,0.188,0.185,0.1795,0.1786,0.1791,0.1837,0.1915,0.1916,0.1918,0.1919,0,0.0474,0.0572,0.0693,0.0873,0.0922,0.1005,0.121,0.1325,0.147,0.1609,0.1644,0.1824,0.183,0.1879,0.1849,0.1851,0.1797,0.1747,0.1665,0.1631,0.1609,0.1658,0.1554,0.1621,0.1617,0.1615,0.1614,0,0.0478,0.0525,0.0677,0.0734,0.0816,0.0947,0.1052,0.1248,0.1359,0.1553,0.1603,0.1662,0.1728,0.1701,0.1682,0.1611,0.1673,0.1505,0.1559,0.1589,0.1621,0.1634,0.1703,0.1413,0.141,0.1408,0.1406,0,0.0478,0.0509,0.0599,0.0692,0.0786,0.0914,0.1054,0.1118,0.1333,0.1403,0.1503,0.1556,0.1565,0.1521,0.1466,0.1436,0.1544,0.1455,0.1507,0.1481,0.1469,0.1525,0.1516,0.1385,0.1387,0.1388,0.139,0.139,0.0459,0.0501,0.0586,0.068,0.0781,0.0885,0.0933,0.1061,0.1164,0.1257,0.1348,0.137,0.1396,0.1334,0.1314,0.1275,0.1355,0.128,0.1332,0.1338,0.1433,0.1373,0.1217,0.1218,0.1219,0.122,0.1221,0,0.0454,0.0503,0.0583,0.0688,0.0764,0.0834,0.0949,0.0961,0.0997,0.1099,0.1128,0.113,0.112,0.1154,0.1121,0.115,0.12,0.1199,0.121,0.1293,0.1224,0.1251,0.1073,0.1073,0.1073,0.1073,0.1073,0.1073,0.0459,0.0511,0.0552,0.0649,0.0712,0.0745,0.0776,0.0773,0.0821,0.0819,0.0824,0.0884,0.1022,0.1025,0.1092,0.1123,0.1265,0.1175,0.1341,0.1297,0.131,0.1322,0.136,0.1207,0.1207,0.1371,0.1372,0.1373]}],[{"header":{"parameterUnit":"m.s-1","parameterCategory":2,"la1":30.2991,"la2":30.254,"lo1":-89.0895,"lo2":-89.0444,"dy":0.0017,"dx":0.0017,"nx":28,"ny":28,"refTime":"2023-08-10T21:00:00:Z","depth":"2","parameterNumber":2,"parameterNumberName":"U-component_of_CURRENTS"},"data":[0,0,0,0,0,0,0,0,0,0,0,0,0,0,0,0,0,0,0,0,0,0,0,0,0,0,0,0,0,0,0,0,0,0,0,0,0,0,0,0,0,0,0,0,0,0,0,0,0,0,0,0,0,0,0,0,0,0,0.1344,0.1345,0,0.1509,0.1511,0.1513,0.1633,0.1633,0.1634,0.1635,0.2133,0.2145,0.2158,0,0,0,0,0,0,0,0,0,0,0,0,0,0.1292,0.1292,0.1344,0.1345,0.1347,0.1509,0.1511,0.1514,0.1633,0.1634,0.1634,0.1635,0.2129,0.2144,0.2159,0,0,0,0,0,0,0,0,0,0,0,0,0,0.1375,0.1291,0.1343,0.1422,0.1431,0.1508,0.1511,0.1515,0.1633,0.1634,0.1634,0.1635,0.2124,0.2142,0.2161,0.2261,0,0,0.2219,0.2227,0,0,0,0,0,0,0,0,0.137,0.1377,0.1409,0.1417,0.1427,0.1547,0.1675,0.1779,0.1632,0.1561,0.1635,0.1636,0.1965,0.1996,0.2027,0.2284,0.2305,0.2221,0.2232,0.2241,0.2246,0,0,0,0,0,0,0,0.1364,0.1372,0.1414,0.1411,0.1421,0.1505,0.1517,0.1695,0.1765,0.1567,0.1575,0.1586,0.1972,0.2008,0.2041,0.2313,0.222,0.2237,0.2249,0.2256,0.2856,0.286,0,0,0,0,0,0,0.1325,0.1365,0.1408,0.1418,0.1395,0.1504,0.1517,0.1511,0.1756,0.179,0.1585,0.1591,0.1975,0.2018,0.2059,0.231,0.224,0.2258,0.2269,0.2851,0.2857,0.2862,0,0,0,0,0,0,0.1323,0.1326,0.1401,0.1394,0.1408,0.1502,0.1496,0.1514,0.1588,0.1765,0.1807,0.1644,0.1977,0.2032,0.2261,0.2326,0.2267,0.2284,0.2846,0.2853,0.2859,0.2739,0,0,0,0,0,0,0.132,0.1324,0.133,0.139,0.1407,0.1478,0.1495,0.1516,0.1589,0.16,0.183,0.1873,0.1982,0.2231,0.228,0.2352,0.2299,0.284,0.2849,0.2857,0.2737,0.2741,0.2744,0,0,0,0,0,0.1318,0.1341,0.1329,0.1336,0.1403,0.148,0.1499,0.1572,0.1591,0.1639,0.1795,0.1868,0.232,0.225,0.2306,0.2385,0.2836,0.2847,0.2857,0.2736,0.274,0.2744,0,0,0,0,0,0,0.1354,0.1355,0.1345,0.1373,0.1424,0.1499,0.1553,0.1588,0.174,0.177,0.1927,0.1985,0.2194,0.2328,0.2247,0.2589,0.2592,0.2614,0.2481,0.2487,0.249,0.247,0.2315,0,0,0,0,0,0.1346,0.1346,0.1375,0.1403,0.1423,0.1485,0.1531,0.1575,0.1697,0.1761,0.1916,0.2105,0.2274,0.2407,0.2567,0.2777,0.2783,0.2871,0.2874,0.2875,0.2902,0.2933,0.2937,0.2895,0.2895,0.2895,0,0,0.1368,0.1369,0.1373,0.1407,0.145,0.1507,0.152,0.1598,0.1675,0.1802,0.199,0.2114,0.2326,0.2525,0.2638,0.2657,0.288,0.2888,0.2886,0.2914,0.2943,0.2946,0.2948,0.2902,0.2901,0.29,0,0,0.142,0.1408,0.1428,0.1461,0.1513,0.1553,0.1577,0.1668,0.1741,0.1918,0.2009,0.2157,0.2469,0.2582,0.2693,0.2829,0.2867,0.2922,0.296,0.2987,0.2988,0.2989,0.2917,0.2913,0.2955,0.2955,0.2955,0,0.1462,0.1467,0.146,0.1495,0.1544,0.1573,0.1643,0.1712,0.1876,0.1971,0.1986,0.2348,0.2481,0.2704,0.2746,0.2826,0.2834,0.2904,0.2978,0.298,0.2983,0.2911,0.2907,0.2951,0.2951,0.2952,0.2952,0,0.1515,0.1535,0.1563,0.1594,0.1652,0.1719,0.1786,0.1886,0.1972,0.2051,0.2269,0.2406,0.2636,0.2683,0.2771,0.2903,0.2888,0.2929,0.293,0.2978,0.29,0.2898,0.2944,0.2946,0.2947,0.2948,0,0,0.1601,0.1598,0.1612,0.1653,0.1712,0.1784,0.1901,0.2043,0.2148,0.2277,0.2419,0.2637,0.2688,0.2815,0.2902,0.293,0.2892,0.2964,0.2967,0.2825,0.2897,0.2591,0.2559,0.2954,0.2956,0.2957,0.2798,0,0.1668,0.1727,0.1718,0.1836,0.1897,0.1953,0.2067,0.2196,0.2302,0.2438,0.2544,0.271,0.2747,0.2845,0.2878,0.291,0.2904,0.2928,0.2938,0.2936,0.2602,0.2553,0.2522,0.2356,0.2796,0.2796,0.2796,0,0.1761,0.1777,0.188,0.1975,0.2011,0.2111,0.2308,0.2408,0.2563,0.2639,0.2775,0.2832,0.2933,0.2916,0.2957,0.2986,0.2954,0.2923,0.2918,0.2686,0.2629,0.241,0.2337,0.2794,0.2794,0.2794,0.2794,0,0.1876,0.193,0.202,0.2048,0.2142,0.2268,0.2368,0.2528,0.261,0.2776,0.2803,0.294,0.2976,0.2994,0.2917,0.2978,0.2856,0.2928,0.26,0.2575,0.2577,0.2547,0.2922,0.2922,0.2922,0.2923,0.2923,0,0.198,0.207,0.2098,0.2159,0.2333,0.2384,0.2587,0.2699,0.2785,0.2836,0.2928,0.2924,0.3003,0.2929,0.2902,0.2682,0.2845,0.2569,0.2518,0.2524,0.2493,0.2941,0.2945,0.2917,0.2918,0.2919,0.292,0,0.2134,0.2121,0.2254,0.235,0.2407,0.2568,0.2702,0.278,0.2864,0.2905,0.2939,0.2928,0.2805,0.2749,0.2697,0.2596,0.2462,0.2346,0.2269,0.2207,0.2173,0.2175,0.1998,0.1986,0.1976,0.1967,0.196,0,0.224,0.2301,0.2413,0.247,0.2542,0.2721,0.2798,0.2883,0.2881,0.2861,0.2819,0.2721,0.257,0.2294,0.2148,0.1946,0.2118,0.1772,0.1868,0.2111,0.2081,0.2099,0.2115,0.1822,0.1814,0.1808,0.1803,0,0.2433,0.2461,0.2513,0.261,0.2713,0.2764,0.2849,0.2829,0.2827,0.2776,0.2608,0.2484,0.2192,0.1923,0.1617,0.1533,0.1804,0.1621,0.1957,0.2007,0.1917,0.1896,0.1924,0.1746,0.1752,0.1756,0.1759,0.1761,0.2595,0.264,0.2658,0.2742,0.2797,0.274,0.2675,0.2613,0.2526,0.228,0.2313,0.2014,0.1905,0.1343,0.1222,0.1147,0.1252,0.1285,0.132,0.1358,0.1312,0.1204,0.0887,0.0887,0.0888,0.0889,0.0889,0,0.2727,0.2711,0.2767,0.2745,0.2662,0.272,0.2602,0.2392,0.2121,0.1991,0.1769,0.1444,0.1197,0.1107,0.0905,0.0793,0.0967,0.0786,0.1102,0.1153,0.12,0.1164,0.0691,0.069,0.0689,0.0688,0,0,0.2782,0.2774,0.2718,0.2574,0.2517,0.2287,0.2136,0.1843,0.1659,0.1333,0.1149,0.106,0.1054,0.0843,0.0799,0.0738,0.0961,0.0713,0.0878,0.1304,0.1351,0.1482,0.1475,0,0,0,0,0]},{"header":{"parameterUnit":"m.s-1","parameterCategory":2,"la1":30.2991,"la2":30.254,"lo1":-89.0895,"lo2":-89.0444,"dy":0.0017,"dx":0.0017,"nx":28,"ny":28,"refTime":"2023-08-10T21:00:00:Z","depth":"2","parameterNumber":3,"parameterNumberName":"V-component_of_CURRENTS"},"data":[0,0,0,0,0,0,0,0,0,0,0,0,0,0,0,0,0,0,0,0,0,0,0,0,0,0,0,0,0,0,0,0,0,0,0,0,0,0,0,0,0,0,0,0,0,0,0,0,0,0,0,0,0,0,0,0,0,0,-0.0351,-0.0351,0,-0.0302,-0.0302,-0.0301,-0.0372,-0.0375,-0.0378,-0.038,-0.0204,-0.0197,-0.019,0,0,0,0,0,0,0,0,0,0,0,0,0,-0.052,-0.0516,-0.0351,-0.0351,-0.035,-0.0302,-0.0302,-0.0301,-0.0372,-0.0375,-0.0378,-0.0381,-0.0206,-0.0198,-0.0189,0,0,0,0,0,0,0,0,0,0,0,0,0,-0.0455,-0.0515,-0.0351,-0.0381,-0.0384,-0.0303,-0.0302,-0.03,-0.0371,-0.0375,-0.0379,-0.0383,-0.0209,-0.0199,-0.0188,-0.0041,0,0,-0.0155,-0.015,0,0,0,0,0,0,0,0,-0.0458,-0.0448,-0.0377,-0.0379,-0.0382,-0.0349,-0.0297,-0.0208,-0.037,-0.0374,-0.038,-0.0385,-0.0239,-0.0226,-0.0207,-0.0032,-0.0025,-0.0154,-0.0148,-0.0143,-0.014,0,0,0,0,0,0,0,-0.0463,-0.0451,-0.033,-0.0377,-0.0379,-0.0402,-0.0397,-0.0281,-0.028,-0.0374,-0.0379,-0.0376,-0.024,-0.0217,-0.0203,-0.0022,-0.0154,-0.0145,-0.0138,-0.0134,0.0256,0.0259,0,0,0,0,0,0,-0.0466,-0.0454,-0.0332,-0.0329,-0.0433,-0.0396,-0.039,-0.0354,-0.0285,-0.028,-0.0372,-0.0379,-0.0234,-0.0215,-0.0197,-0.0048,-0.0143,-0.0133,-0.0127,0.0252,0.0257,0.0261,0,0,0,0,0,0,-0.0469,-0.0454,-0.0334,-0.0395,-0.0382,-0.0389,-0.0348,-0.0351,-0.0359,-0.0285,-0.0279,-0.0382,-0.0236,-0.0212,-0.0107,-0.0041,-0.0128,-0.0118,0.0247,0.0253,0.0259,0.0269,0,0,0,0,0,0,-0.0474,-0.0455,-0.0441,-0.0393,-0.0378,-0.0284,-0.0344,-0.0347,-0.035,-0.0359,-0.0289,-0.0276,-0.0237,-0.0124,-0.0097,-0.0028,-0.011,0.0242,0.025,0.0257,0.0264,0.0274,0.0284,0,0,0,0,0,-0.0479,-0.0434,-0.0439,-0.0426,-0.0353,-0.0282,-0.0275,-0.0296,-0.0347,-0.0324,-0.029,-0.028,-0.0058,-0.0112,-0.0081,-0.0008,0.0239,0.0248,0.0256,0.0259,0.0272,0.0283,0,0,0,0,0,0,-0.0506,-0.0435,-0.0441,-0.038,-0.0338,-0.0296,-0.0287,-0.0296,-0.0253,-0.0276,-0.0227,-0.0207,-0.01,-0.0038,-0.0098,0.0129,0.0094,0.0109,0.0086,0.0099,0.0109,0.0099,-0.0101,0,0,0,0,0,-0.0499,-0.0447,-0.0391,-0.0346,-0.0328,-0.0311,-0.0295,-0.0299,-0.0254,-0.0246,-0.0194,-0.0121,-0.0026,0.0039,0.012,0.0268,0.0261,0.0338,0.0348,0.0355,0.0373,0.0394,0.0405,0.0289,0.0289,0.0289,0,0,-0.0502,-0.0455,-0.0431,-0.0349,-0.033,-0.0272,-0.0311,-0.028,-0.0227,-0.022,-0.0139,-0.0094,0.0013,0.0145,0.0205,0.0202,0.0385,0.0367,0.0372,0.0385,0.0404,0.0414,0.0423,0.0295,0.0294,0.0293,0,0,-0.0471,-0.0436,-0.0388,-0.0341,-0.0297,-0.0263,-0.0256,-0.0208,-0.0191,-0.0088,-0.0085,-0.0008,0.0156,0.0231,0.0296,0.0428,0.0414,0.0469,0.0542,0.0562,0.057,0.0577,0.056,0.0565,0.05,0.05,0.05,0,-0.0494,-0.041,-0.0366,-0.0306,-0.0273,-0.0258,-0.0205,-0.0149,-0.0074,-0.0023,-0.0061,0.0142,0.0201,0.0374,0.0408,0.0448,0.044,0.0476,0.0568,0.0575,0.0582,0.0563,0.0569,0.0501,0.0501,0.0501,0.0501,0,-0.0415,-0.0365,-0.0333,-0.0245,-0.019,-0.0144,-0.0064,-0.0003,0.0015,0.0073,0.0205,0.0274,0.0397,0.0437,0.0467,0.0585,0.0553,0.0543,0.0516,0.0592,0.057,0.0575,0.0504,0.0503,0.0503,0.0502,0,0,-0.0451,-0.0309,-0.0309,-0.0268,-0.0164,-0.0111,0.0008,0.0128,0.0204,0.0279,0.0385,0.0523,0.0529,0.0604,0.0644,0.0677,0.0694,0.0641,0.0641,0.0587,0.0709,0.0665,0.0666,0.0687,0.0689,0.069,0.0662,0,-0.0428,-0.0318,-0.0239,-0.0146,-0.0095,-0.001,0.011,0.0226,0.0315,0.0433,0.0516,0.0627,0.0611,0.0658,0.0692,0.07,0.0715,0.0701,0.0678,0.0677,0.0598,0.0674,0.0599,0.0567,0.0667,0.0668,0.0668,0,-0.0402,-0.0328,-0.0238,-0.0097,-0.0065,0.0008,0.0176,0.0295,0.0487,0.0562,0.0682,0.0733,0.084,0.0777,0.0823,0.0811,0.0767,0.0745,0.0743,0.0707,0.0646,0.0518,0.0572,0.0677,0.0676,0.0676,0.0675,0,-0.0477,-0.0338,-0.0273,-0.0228,-0.0052,0.0013,0.0122,0.0317,0.045,0.0636,0.0717,0.0842,0.0893,0.0883,0.085,0.0837,0.0846,0.082,0.0737,0.0731,0.0669,0.0656,0.0823,0.0823,0.0823,0.0823,0.0824,0,-0.0482,-0.0445,-0.031,-0.0276,-0.0156,-0.003,0.0136,0.0274,0.0482,0.0647,0.0759,0.0879,0.0914,0.0934,0.0883,0.0832,0.087,0.0763,0.0738,0.0671,0.0659,0.0765,0.0759,0.0822,0.0823,0.0823,0.0823,0,-0.0566,-0.0488,-0.0413,-0.0255,-0.0192,-0.011,0.0151,0.0304,0.0461,0.0668,0.0726,0.0908,0.0934,0.0926,0.0911,0.0866,0.0822,0.0779,0.0684,0.0649,0.0678,0.0674,0.0705,0.0703,0.0702,0.0701,0.07,0,-0.0593,-0.0567,-0.042,-0.0326,-0.0253,-0.0089,0.0075,0.0284,0.0438,0.069,0.0778,0.0871,0.095,0.0915,0.0828,0.0728,0.077,0.0634,0.0611,0.0703,0.0675,0.0672,0.0669,0.0518,0.0516,0.0514,0.0512,0,-0.0627,-0.0598,-0.0503,-0.0315,-0.0171,0.0018,0.0218,0.0312,0.056,0.0678,0.0851,0.0917,0.0891,0.0804,0.0679,0.0618,0.0653,0.0593,0.0735,0.0564,0.0527,0.0498,0.0502,0.0496,0.0497,0.0499,0.0499,0.05,-0.0649,-0.0579,-0.0428,-0.0242,-0.0056,0.0134,0.0223,0.0394,0.0564,0.07,0.08,0.0839,0.0813,0.0594,0.0541,0.0479,0.0487,0.0475,0.0481,0.0489,0.0478,0.0441,0.0389,0.039,0.0391,0.0392,0.0392,0,-0.0584,-0.0455,-0.0314,-0.0098,0.0101,0.0183,0.0369,0.0405,0.0509,0.0614,0.0681,0.0599,0.0535,0.0515,0.0359,0.0314,0.032,0.0346,0.0352,0.0365,0.0378,0.0363,0.0243,0.0244,0.0244,0.0245,0,0,-0.0524,-0.0365,-0.0281,0.0029,0.0182,0.0326,0.0388,0.0377,0.0415,0.0443,0.0457,0.0498,0.0501,0.0385,0.0324,0.0275,0.0341,0.0274,0.0379,0.04,0.0414,0.0418,0.0406,0,0,0,0,0]}],[{"header":{"parameterUnit":"m.s-1","parameterCategory":2,"la1":30.2991,"la2":30.254,"lo1":-89.0895,"lo2":-89.0444,"dy":0.0017,"dx":0.0017,"nx":28,"ny":28,"refTime":"2023-08-10T21:00:00:Z","depth":"4","parameterNumber":2,"parameterNumberName":"U-component_of_CURRENTS"},"data":[0,0,0,0,0,0,0,0,0,0,0,0,0,0,0,0,0,0,0,0,0,0,0,0,0,0,0,0,0,0,0,0,0,0,0,0,0,0,0,0,0,0,0,0,0,0,0,0,0,0,0,0,0,0,0,0,0,0,-0.0533,-0.0534,0,-0.0572,-0.0572,-0.0572,-0.0553,-0.0552,-0.0551,-0.0551,-0.0352,-0.0348,-0.0343,0,0,0,0,0,0,0,0,0,0,0,0,0,-0.0506,-0.0506,-0.0533,-0.0534,-0.0535,-0.0572,-0.0572,-0.0572,-0.0553,-0.0552,-0.0551,-0.055,-0.0354,-0.0348,-0.0343,0,0,0,0,0,0,0,0,0,0,0,0,0,-0.0526,-0.0506,-0.0533,-0.0531,-0.0532,-0.0572,-0.0572,-0.0572,-0.0553,-0.0552,-0.0551,-0.055,-0.0355,-0.0349,-0.0342,-0.0323,0,0,-0.0321,-0.0318,0,0,0,0,0,0,0,0,-0.0525,-0.0526,-0.0531,-0.0532,-0.0532,-0.0559,-0.049,-0.0478,-0.0554,-0.0542,-0.0551,-0.0549,-0.0402,-0.0391,-0.0401,-0.0313,-0.0305,-0.032,-0.0316,-0.0313,-0.0311,0,0,0,0,0,0,0,-0.0523,-0.0525,-0.0546,-0.0532,-0.0533,-0.0551,-0.0551,-0.0489,-0.0471,-0.0543,-0.0543,-0.0552,-0.04,-0.0408,-0.0395,-0.0302,-0.0321,-0.0315,-0.031,-0.0308,-0.0067,-0.0065,0,0,0,0,0,0,-0.0522,-0.0524,-0.0545,-0.0547,-0.0529,-0.0552,-0.0553,-0.0549,-0.0477,-0.0468,-0.0553,-0.0551,-0.042,-0.0403,-0.0388,-0.0212,-0.0313,-0.0307,-0.0303,-0.0069,-0.0067,-0.0064,0,0,0,0,0,0,-0.0521,-0.0523,-0.0543,-0.0539,-0.0543,-0.0554,-0.055,-0.0551,-0.0521,-0.0488,-0.0473,-0.0518,-0.0418,-0.0397,-0.0254,-0.0209,-0.0304,-0.0298,-0.0072,-0.0069,-0.0065,0.0045,0,0,0,0,0,0,-0.052,-0.0522,-0.0531,-0.0539,-0.0544,-0.0534,-0.0551,-0.0552,-0.0532,-0.0528,-0.0453,-0.0437,-0.0416,-0.0264,-0.0247,-0.0202,-0.0292,-0.0075,-0.0071,-0.0067,0.0039,0.0052,0.0064,0,0,0,0,0,-0.0518,-0.0532,-0.0531,-0.0535,-0.0551,-0.0533,-0.0535,-0.0539,-0.0531,-0.0508,-0.0423,-0.0437,-0.0228,-0.0254,-0.0236,-0.0187,-0.0077,-0.0072,-0.0067,0.0033,0.005,0.0063,0,0,0,0,0,0,-0.0525,-0.0532,-0.0531,-0.0545,-0.0525,-0.0529,-0.0531,-0.0516,-0.0443,-0.0411,-0.0376,-0.0351,-0.0221,-0.0215,-0.0246,-0.0111,-0.0168,-0.0159,-0.0099,-0.0083,-0.0071,-0.0175,-0.0287,0,0,0,0,0,-0.0532,-0.0541,-0.0531,-0.0539,-0.0527,-0.0518,-0.0516,-0.0488,-0.0432,-0.0402,-0.0313,-0.0245,-0.0198,-0.0143,-0.0084,0.0015,-0.0124,0.0045,0.0057,0.0068,-0.0006,-0.0263,-0.0285,-0.0047,-0.0047,-0.0048,0,0,-0.0536,-0.0545,-0.0549,-0.0541,-0.0532,-0.0477,-0.051,-0.0469,-0.0398,-0.0383,-0.0219,-0.0177,-0.016,-0.0051,0.0003,-0.0028,-0.0031,0.0074,0.0084,0.0002,-0.0261,-0.0286,-0.0308,-0.0044,-0.0045,-0.0045,0,0,-0.0526,-0.0547,-0.0532,-0.05,-0.0465,-0.0445,-0.0416,-0.0343,-0.0295,-0.0133,-0.0135,-0.0111,0.0088,0.0022,0.0023,0.0122,0.0042,0.0218,0.0202,-0.0043,-0.0069,-0.0093,-0.0141,-0.0172,0.0222,0.0222,0.0222,0,-0.0535,-0.0496,-0.0521,-0.0473,-0.0433,-0.0412,-0.0332,-0.0292,-0.0157,-0.0147,-0.0044,0.0021,0.0066,0.0002,0.0084,0.0132,0.0075,0.0153,-0.0039,-0.0067,-0.0095,-0.014,-0.0175,0.0228,0.0227,0.0226,0.0226,0,-0.0478,-0.0438,-0.042,-0.0346,-0.031,-0.0236,-0.0172,-0.0094,0.0004,0.0017,0.0054,0.0082,0.0082,0.0122,0.0177,0.0023,0.0084,0.0003,-0.0096,-0.0114,-0.0155,-0.0194,0.0236,0.0234,0.0232,0.0231,0,0,-0.0498,-0.0401,-0.0385,-0.0319,-0.0218,-0.0176,-0.0075,-0.0031,-0.0041,0.0087,0.0031,0.0112,0.0073,0.0061,0.0062,-0.0118,-0.0259,-0.0074,-0.009,-0.0153,-0.063,-0.0301,-0.0312,-0.0348,-0.0358,-0.0365,-0.0524,0,-0.0428,-0.0317,-0.0278,-0.0134,-0.0055,-0.0012,0.0054,0.0085,0.0115,0.0078,-0.0025,-0.0027,0.0063,0.0076,-0.0094,-0.025,-0.0378,-0.0199,-0.0581,-0.059,-0.0331,-0.0357,-0.0396,-0.0554,-0.0564,-0.057,-0.0575,0,-0.0357,-0.0289,-0.014,-0.0034,-0.0002,0.0087,0.0124,0.0183,0.007,0.0084,-0.0024,-0.0077,-0.0254,-0.0205,-0.054,-0.0393,-0.0478,-0.0615,-0.0627,-0.0428,-0.0343,-0.0573,-0.0648,-0.0642,-0.0637,-0.0632,-0.0627,0,-0.0336,-0.019,-0.0068,-0.0012,0.0106,0.0168,0.0221,0.0178,0.0152,0.0044,-0.0032,-0.0227,-0.0341,-0.0556,-0.0664,-0.0607,-0.1072,-0.1072,-0.0875,-0.0846,-0.1152,-0.1127,-0.1384,-0.1384,-0.1384,-0.1383,-0.1383,0,-0.027,-0.0174,-0.004,0.0033,0.0126,0.0211,0.0227,0.0239,0.0133,0.0027,-0.0037,-0.0176,-0.0445,-0.0676,-0.0768,-0.0883,-0.1148,-0.0902,-0.0917,-0.1062,-0.1028,-0.1169,-0.1142,-0.1389,-0.1388,-0.1387,-0.1386,0,-0.026,-0.0165,-0.0034,0.011,0.0147,0.0217,0.0244,0.0184,0.0159,-0.0007,-0.0032,-0.0226,-0.0375,-0.0601,-0.0967,-0.0983,-0.1169,-0.1148,-0.1173,-0.1183,-0.0731,-0.0696,-0.0954,-0.0945,-0.0937,-0.0931,-0.0925,0,-0.0241,-0.0161,-0.001,0.002,0.0099,0.0182,0.0172,0.0198,0.0112,-0.0016,-0.0142,-0.0271,-0.0361,-0.0633,-0.0814,-0.0957,-0.0955,-0.1053,-0.0975,-0.0724,-0.0715,-0.0691,-0.0666,-0.0913,-0.0911,-0.0909,-0.0907,0,-0.0218,-0.0162,-0.0088,-0.0035,0.0008,0.0026,0.0039,0.0004,-0.001,-0.0084,-0.016,-0.0201,-0.036,-0.0491,-0.0575,-0.0707,-0.1012,-0.0972,-0.0989,-0.0916,-0.0678,-0.067,-0.0655,-0.088,-0.0884,-0.0887,-0.0888,0,-0.0236,-0.0214,-0.0151,-0.0087,-0.0085,-0.0091,-0.0064,-0.0085,-0.0106,-0.0173,-0.0196,-0.0268,-0.0354,-0.036,-0.0481,-0.0502,-0.0479,-0.0551,-0.059,-0.0621,-0.0428,-0.007,-0.0133,0,0,0,0,0,-0.0246,-0.0238,-0.0224,-0.0155,-0.0169,-0.0117,-0.0172,-0.016,-0.0156,-0.0176,-0.0142,-0.0196,-0.019,-0.0255,-0.0201,-0.034,-0.0528,-0.0283,-0.0642,-0.0732,-0.0763,-0.0559,0,0,0,0,0,0,-0.0269,-0.0267,-0.0238,-0.0225,-0.0162,-0.0172,-0.0158,-0.0158,-0.0148,-0.0134,-0.0136,-0.012,-0.0145,-0.0154,-0.0161,-0.0175,-0.0389,-0.0294,-0.0292,-0.0714,-0.0742,-0.0767,-0.0568,0,0,0,0,0]},{"header":{"parameterUnit":"m.s-1","parameterCategory":2,"la1":30.2991,"la2":30.254,"lo1":-89.0895,"lo2":-89.0444,"dy":0.0017,"dx":0.0017,"nx":28,"ny":28,"refTime":"2023-08-10T21:00:00:Z","depth":"4","parameterNumber":3,"parameterNumberName":"V-component_of_CURRENTS"},"data":[0,0,0,0,0,0,0,0,0,0,0,0,0,0,0,0,0,0,0,0,0,0,0,0,0,0,0,0,0,0,0,0,0,0,0,0,0,0,0,0,0,0,0,0,0,0,0,0,0,0,0,0,0,0,0,0,0,0,-0.0006,-0.0006,0,-0.0034,-0.0034,-0.0034,0.0028,0.003,0.0032,0.0034,-0.0043,-0.0047,-0.0051,0,0,0,0,0,0,0,0,0,0,0,0,0,0.0081,0.0079,-0.0006,-0.0006,-0.0006,-0.0034,-0.0034,-0.0034,0.0028,0.003,0.0033,0.0035,-0.0042,-0.0047,-0.0051,0,0,0,0,0,0,0,0,0,0,0,0,0,0.0048,0.0079,-0.0006,0.0021,0.0023,-0.0034,-0.0034,-0.0035,0.0027,0.003,0.0033,0.0036,-0.004,-0.0046,-0.0052,-0.0148,0,0,-0.007,-0.0072,0,0,0,0,0,0,0,0,0.0049,0.0044,0.0018,0.0019,0.0021,0.0004,-0.0032,-0.0075,0.0027,0.0026,0.0034,0.0038,-0.0035,-0.0041,-0.0051,-0.0151,-0.0154,-0.007,-0.0074,-0.0076,-0.0078,0,0,0,0,0,0,0,0.0052,0.0046,-0.0016,0.0017,0.0019,0.0027,0.0026,-0.004,-0.0021,0.0026,0.0031,0.0026,-0.0033,-0.0046,-0.0053,-0.0156,-0.007,-0.0075,-0.0079,-0.0081,-0.0257,-0.0258,0,0,0,0,0,0,0.0052,0.0048,-0.0016,-0.0017,0.0043,0.0023,0.0022,0.0007,-0.0019,-0.002,0.0024,0.0029,-0.0037,-0.0046,-0.0056,-0.0076,-0.0076,-0.0082,-0.0085,-0.0256,-0.0258,-0.0259,0,0,0,0,0,0,0.0053,0.0046,-0.0014,0.0015,0.0008,0.0019,0.0001,0.0004,0.0036,-0.0021,-0.0022,0.0058,-0.0035,-0.0047,-0.0085,-0.0082,-0.0084,-0.009,-0.0255,-0.0257,-0.0258,-0.0179,0,0,0,0,0,0,0.0056,0.0046,0.0048,0.0015,0.0007,-0.0033,-0.0002,0.0002,0.0026,0.0034,0.0005,-0.0,-0.0034,-0.0076,-0.0091,-0.009,-0.0094,-0.0253,-0.0256,-0.0258,-0.018,-0.0178,-0.0176,0,0,0,0,0,0.0059,0.0044,0.0047,0.0041,0.0003,-0.0034,-0.0037,-0.0019,0.0025,0.0025,0.0016,0.0003,-0.01,-0.0082,-0.0099,-0.01,-0.0252,-0.0255,-0.0257,-0.0181,-0.0178,-0.0176,0,0,0,0,0,0,0.0078,0.0048,0.0051,0.0028,0.0007,-0.0022,-0.0008,-0.0001,-0.0008,0.0026,-0.0017,-0.0027,-0.0062,-0.0103,-0.0081,-0.0161,-0.0178,-0.0184,-0.0114,-0.0112,-0.011,-0.0104,-0.0099,0,0,0,0,0,0.0079,0.0073,0.0034,0.0022,0.0021,0.0014,0.0012,0.0023,0.0007,0.0013,-0.0006,-0.0039,-0.01,-0.0115,-0.0172,-0.0218,-0.0219,-0.0232,-0.0229,-0.0227,-0.0237,-0.0251,-0.0249,-0.0267,-0.0267,-0.0267,0,0,0.0079,0.0068,0.0062,0.0028,0.0029,0.0013,0.0023,0.0035,0.0024,-0.0003,0.0002,-0.0034,-0.0113,-0.0158,-0.0177,-0.0179,-0.021,-0.023,-0.0227,-0.0239,-0.0253,-0.0251,-0.0249,-0.0269,-0.0269,-0.0269,0,0,0.0083,0.0076,0.0078,0.0063,0.0066,0.0046,0.0057,0.005,0.0059,0.0051,0.0013,-0.0025,-0.007,-0.0153,-0.0197,-0.0229,-0.0204,-0.0225,-0.0201,-0.0213,-0.0211,-0.0209,-0.0141,-0.0134,-0.0216,-0.0216,-0.0216,0,0.0095,0.009,0.0071,0.0071,0.0075,0.0066,0.0073,0.0046,0.003,0.0005,0.0076,-0.0042,-0.0079,-0.0214,-0.0191,-0.0224,-0.0182,-0.0195,-0.0206,-0.0205,-0.0204,-0.0136,-0.0129,-0.0213,-0.0213,-0.0213,-0.0214,0,0.0088,0.0102,0.0109,0.0105,0.009,0.0104,0.0064,0.0055,0.0095,0.0057,-0.0004,-0.0049,-0.0114,-0.0137,-0.0148,-0.0205,-0.0154,-0.0199,-0.0198,-0.0197,-0.0125,-0.0119,-0.0208,-0.0209,-0.021,-0.0211,0,0,0.0089,0.0105,0.0119,0.0143,0.0129,0.0119,0.0083,0.0024,-0.0019,-0.0005,-0.0065,-0.0121,-0.0119,-0.0172,-0.0218,-0.0222,-0.0134,-0.0167,-0.0169,-0.0072,-0.0066,-0.0164,-0.0166,-0.0147,-0.0147,-0.0147,0.0009,0,0.0113,0.0148,0.0134,0.0163,0.0182,0.0149,0.0103,0.0041,0.0,-0.0075,-0.014,-0.0189,-0.0149,-0.0139,-0.0146,-0.0185,-0.0124,-0.0167,-0.0108,-0.0106,-0.0173,-0.0168,-0.0149,0.0013,0.0014,0.0015,0.0016,0,0.0127,0.0154,0.0212,0.0216,0.0219,0.0241,0.0173,0.0132,-0.0027,-0.0053,-0.013,-0.0202,-0.0252,-0.0179,-0.0171,-0.0178,-0.0075,-0.007,-0.0065,-0.0193,-0.0198,-0.0012,0.0026,0.0026,0.0025,0.0024,0.0023,0,0.0172,0.0209,0.028,0.0287,0.0271,0.0311,0.0316,0.018,0.0099,-0.001,-0.0093,-0.018,-0.0204,-0.0141,-0.0095,-0.0092,-0.0065,-0.0081,-0.0068,-0.0069,-0.0055,-0.006,-0.0004,-0.0004,-0.0004,-0.0005,-0.0005,0,0.0204,0.0255,0.0347,0.0382,0.0431,0.0429,0.0423,0.0361,0.0227,0.0057,-0.0019,-0.0172,-0.0181,-0.0216,-0.0106,-0.0079,-0.0045,-0.0062,-0.0061,-0.0017,-0.002,-0.0045,-0.0053,0.0001,-0.0,-0.0001,-0.0002,0,0.0228,0.0295,0.0357,0.0427,0.0471,0.0528,0.0528,0.0432,0.0365,0.0139,0.0114,-0.0125,-0.0188,-0.02,-0.0148,-0.012,-0.0064,-0.0024,0.0077,0.0082,-0.0034,-0.0039,-0.0022,-0.0025,-0.0027,-0.0029,-0.0031,0,0.0243,0.0294,0.0405,0.044,0.0512,0.0599,0.0577,0.054,0.0369,0.0123,-0.0057,-0.0168,-0.0318,-0.0278,-0.0271,-0.0116,-0.0093,-0.0005,-0.0072,-0.0048,-0.0047,-0.0049,-0.005,-0.0035,-0.0035,-0.0036,-0.0037,0,0.0214,0.0281,0.0301,0.0397,0.046,0.0445,0.0424,0.0345,0.0177,0.0086,-0.0164,-0.0225,-0.0358,-0.0354,-0.0236,-0.0129,-0.0069,-0.0029,-0.0024,-0.0086,-0.0063,-0.006,-0.0059,-0.0045,-0.0043,-0.0043,-0.0042,0,0.0172,0.0151,0.0193,0.0283,0.0323,0.0272,0.0309,0.0158,0.0064,-0.019,-0.0254,-0.0344,-0.04,-0.0363,-0.0267,-0.0194,-0.0192,-0.0122,-0.0111,-0.0102,-0.022,-0.0207,-0.0234,0,0,0,0,0,0.0101,0.0043,0.0062,0.0103,0.0145,0.0203,0.0107,0.0092,-0.0024,-0.0193,-0.0208,-0.0309,-0.0303,-0.0331,-0.0269,-0.0351,-0.02,-0.0283,-0.0115,-0.0089,-0.008,-0.0221,0,0,0,0,0,0,0.0014,-0.0006,-0.0013,-0.0043,0.0008,-0.0012,-0.0011,-0.0077,-0.0174,-0.0245,-0.0224,-0.0263,-0.0239,-0.0291,-0.0245,-0.0249,-0.0132,-0.029,-0.0288,-0.0094,-0.0086,-0.0078,-0.0221,0,0,0,0,0]}]]